Beatty, Nevada Weather observations

Data are for observation ending at time listed.
 Day   Time    Ave.   Ave.  Ave.  Vector   Max.   Stn.    Total    Solar   Ave.  
  of    of     Air    Rel.  Wind   Wind    Wind   Baro.  Precip.   Rad.    Soil  
Year   Day     Temp.  Hum.  Speed  Dir.    Gust   Pres.                    Temp. 
2014   (PST)    F      %     mph   deg.    mph     mb.     in.     W/m2     F   
------------------------------------------------------------------------------
 274    2:30   67.1    27    8.6     4     13.9   896.0    0.00       0    75.0
 274    2:40   66.7    28    8.0     3     14.8   896.1    0.00       0    74.9
 274    2:50   66.4    28    7.2   360     16.3   896.2    0.00       0    74.9
 274    3:00   66.5    28    8.0   359     15.9   896.2    0.00       0    74.9
 274    3:10   66.5    28    7.2   357     18.7   896.3    0.00       0    74.8
 274    3:20   65.9    28    6.7     3     12.7   896.4    0.00       0    74.8
 274    3:30   65.4    29    6.7   358     14.9   896.6    0.00       0    74.8
 274    3:40   65.4    29    8.2   358     15.0   896.7    0.00       0    74.8
 274    3:50   65.1    30    8.4     1     17.3   896.8    0.00       0    74.7
 274    4:00   65.1    30    9.0     1     18.0   897.0    0.00       0    74.7
 274    4:10   64.9    31   11.3     1     20.9   897.2    0.00       0    74.6
 274    4:20   64.6    32    9.9   357     18.8   897.3    0.00       0    74.6
 274    4:30   64.2    32    9.3   356     19.2   897.4    0.00       0    74.6
 274    4:40   63.9    33    6.9   356     15.5   897.6    0.00       0    74.5
 274    4:50   63.7    33    7.4     0     12.3   897.8    0.00       0    74.5
 274    5:00   63.4    34    9.6     5     17.4   898.0    0.00       0    74.4
 274    5:10   63.1    34    8.2     6     15.6   898.2    0.00       0    74.4
 274    5:20   63.2    34    9.5     8     15.9   898.4    0.00       0    74.3
 274    5:30   63.0    35   10.1     8     15.6   898.6    0.00       0    74.3
 274    5:40   63.0    35   10.0     2     16.4   898.7    0.00       0    74.2
 274    5:50   62.7    35    9.9     5     17.2   898.9    0.00       4    74.2
 274    6:00   62.4    36    9.9     6     17.0   899.0    0.00       7    74.2
 274    6:10   62.3    36    9.6     8     15.3   899.2    0.00      10    74.1
 274    6:20   62.4    36    8.6     5     14.5   899.4    0.00      12    74.1
 274    6:30   62.6    35    9.3     2     15.9   899.6    0.00      16    74.1
 274    6:40   62.6    35   10.6     3     19.0   899.8    0.00      19    74.0
 274    6:50   63.1    34   11.4     5     18.9   900.0    0.00      94    74.0
 274    7:00   63.5    34   10.8   359     18.2   900.0    0.00     148    73.9
 274    7:10   63.6    33   11.5     6     18.2   900.2    0.00     150    73.9
 274    7:20   64.1    33   10.5     1     16.9   900.3    0.00     200    73.8
 274    7:30   64.3    32    9.8     5     19.0   900.4    0.00     246    73.8
 274    7:40   64.7    32    9.7   356     18.0   900.5    0.00     275    73.8
 274    7:50   64.6    31   10.7     2     20.7   900.5    0.00     302    73.7
 274    8:00   65.1    30   12.1     1     19.8   900.6    0.00     328    73.7
 274    8:10   65.7    30   11.6     1     19.7   900.7    0.00     354    73.6
 274    8:20   66.1    29   11.2   359     18.2   900.8    0.00     378    73.6
 274    8:30   66.5    29   11.1     2     19.2   900.9    0.00     401    73.5
 274    8:40   66.7    28   11.7     2     20.2   901.0    0.00     424    73.5
 274    8:50   67.5    28   10.5   359     20.4   901.2    0.00     446    73.4
 274    9:00   67.7    27   12.3     2     20.9   901.3    0.00     470    73.4
 274    9:10   68.0    26   12.9     1     20.2   901.4    0.00     491    73.4
 274    9:20   68.4    25   11.1     1     20.8   901.4    0.00     511    73.4
 274    9:30   68.1    24   14.8   357     26.0   901.6    0.00     528    73.3
 274    9:40   68.5    24   12.1     2     20.2   901.6    0.00     547    73.3
 274    9:50   69.0    24   11.1     5     23.2   901.5    0.00     566    73.3
 274   10:00   69.1    23   11.6    10     21.9   901.5    0.00     582    73.3
 274   10:10   70.0    22    9.6    22     21.6   901.4    0.00     597    73.2
 274   10:20   70.5    21   10.7     2     21.3   901.4    0.00     606    73.2
 274   10:30   70.2    21   12.5     8     24.5   901.3    0.00     618    73.1
 274   10:40   70.3    20   13.3     1     22.1   901.1    0.00     627    73.1
 274   10:50   70.7    20   12.3     4     20.7   901.0    0.00     636    73.1
 274   11:00   71.2    19   12.2   359     24.5   901.0    0.00     647    73.1
 274   11:10   71.4    18   13.3     0     22.4   900.8    0.00     654    73.1
 274   11:20   71.7    18   13.5     4     22.4   900.7    0.00     659    73.1
 274   11:30   72.2    17   10.0     8     18.5   900.8    0.00     664    73.0
 274   11:40   72.0    17   13.3     1     23.4   900.8    0.00     665    73.0
 274   11:50   72.1    16   11.4   359     19.0   900.8    0.00     665    73.0
 274   12:00   73.0    16   10.1   358     20.9   900.8    0.00     664    73.0
 274   12:10   73.0    16    9.7   359     19.2   900.8    0.00     657    73.0
 274   12:20   72.6    16   11.4   359     21.9   900.8    0.00     653    73.0
 274   12:30   73.3    16   10.7     4     21.9   900.6    0.00     647    73.1
 274   12:40   73.2    15   10.6     1     18.2   900.5    0.00     641    73.1
 274   12:50   73.5    14    9.9   352     19.7   900.5    0.00     636    73.1
 274   13:00   74.1    13    9.7   354     19.6   900.4    0.00     625    73.1
 274   13:10   73.7    13   11.8     1     19.1   900.3    0.00     613    73.1
 274   13:20   74.2    13   10.7     2     18.6   900.2    0.00     600    73.1
 274   13:30   74.3    12   10.5   358     18.5   900.2    0.00     587    73.2
 274   13:40   74.0    12    9.9     3     21.7   900.2    0.00     534    73.2
 274   13:50   74.1    11   10.9     0     19.5   900.2    0.00     557    73.3
 274   14:00   74.3    11   10.6     2     22.7   900.2    0.00     539    73.3
 274   14:10   74.4    11   10.6     1     21.3   900.2    0.00     518    73.3
 274   14:20   75.0    10    9.6   360     17.2   900.2    0.00     498    73.3
 274   14:30   75.0    10    8.1     1     17.8   900.0    0.00     144    73.4
 274   14:40   74.8    11    9.2   355     18.3   900.0    0.00      30    73.4
 274   14:50   74.8    11    8.7     1     15.4   899.8    0.00      44    73.4
 274   15:00   75.2    11    7.7     0     18.3   899.8    0.00      44    73.3
 274   15:10   76.0    11    5.3   342     15.3   899.8    0.00      40    73.4
 274   15:20   75.5    11    8.9     4     17.3   899.8    0.00      37    73.4
 274   15:30   75.5    11    9.4   359     16.7   900.0    0.00      60    73.4
 274   15:40   75.4    11    7.0   359     15.9   900.0    0.00      25    73.5
 274   15:50   75.7    12    8.8   358     16.4   900.0    0.00      24    73.5
 274   16:00   75.8    12    9.1   358     15.7   900.0    0.00      27    73.5
 274   16:10   75.8    12    7.8   355     17.8   900.0    0.00      23    73.5
 274   16:20   75.7    12   11.3     4     18.4   900.0    0.00      23    73.6
 274   16:30   75.4    12   10.6     2     17.8   900.0    0.00      36    73.6
 274   16:40   75.4    12   10.0     3     15.8   899.8    0.00      88    73.6
 274   16:50   75.3    12    9.6     6     15.6   899.9    0.00      90    73.6
 274   17:00   74.6    12   11.0     4     17.2   899.9    0.00      75    73.7
 274   17:10   73.9    12   10.3     4     15.8   899.9    0.00      45    73.7
 274   17:20   73.2    12   10.1     5     15.9   900.0    0.00      11    73.7
 274   17:30   72.7    12    9.0     3     14.9   900.1    0.00       6    73.7
 274   17:40   72.4    12    8.9     3     14.7   900.3    0.00       3    73.7
 274   17:50   71.9    12    8.4     6     15.3   900.4    0.00       0    73.7
 274   18:00   71.4    12    7.0     6     10.1   900.6    0.00       0    73.7
 274   18:10   71.0    13    6.8     5     11.3   900.7    0.00       0    73.7
 274   18:20   70.4    13    5.9     9      8.8   900.7    0.00       0    73.7
 274   18:30   69.8    13    5.4    10      8.7   900.7    0.00       0    73.7
 274   18:40   69.3    13    4.1    19      9.5   900.9    0.00       0    73.7
 274   18:50   67.0    14    2.5    53      6.1   901.1    0.00       0    73.7
 274   19:00   66.1    15    2.3    58      6.4   901.3    0.00       0    73.8
 274   19:10   65.7    15    2.0    55      5.9   901.5    0.00       0    73.8
 274   19:20   65.9    15    1.1    37      3.3   901.7    0.00       0    73.7
 274   19:30   65.1    17    0.8    51      3.1   902.0    0.00       0    73.8
 274   19:40   63.0    18    1.7   355      5.7   902.2    0.00       0    73.8
 274   19:50   64.0    16    2.0     5      6.1   902.4    0.00       0    73.8
 274   20:00   62.9    17    1.2    68      2.7   902.5    0.00       0    73.8
 274   20:10   62.3    18    0.8    62      3.9   902.6    0.00       0    73.8
 274   20:20   61.7    19    1.6   356      4.2   902.7    0.00       0    73.8
 274   20:30   62.4    17    3.1    10      8.5   902.9    0.00       0    73.8
 274   20:40   63.7    16    3.1    24      6.3   902.9    0.00       0    73.8
 274   20:50   63.3    16    2.2    47      5.7   903.0    0.00       0    73.8
 274   21:00   62.3    17    2.6    38      5.8   903.1    0.00       0    73.8
 274   21:10   60.8    18    1.8    46      5.3   903.2    0.00       0    73.8
 274   21:20   60.8    18    2.0    33      4.8   903.3    0.00       0    73.8
 274   21:30   60.7    18    1.8    42      4.9   903.4    0.00       0    73.8
 274   21:40   61.1    18    2.5    65      6.8   903.4    0.00       0    73.8
 274   21:50   61.4    17    2.6    52      5.3   903.6    0.00       0    73.8
 274   22:00   60.9    18    2.2    45      4.7   903.7    0.00       0    73.7
 274   22:10   59.6    19    2.7    19      5.9   903.8    0.00       0    73.7
 274   22:20   57.2    21    3.9   354      6.5   903.9    0.00       0    73.7
 274   22:30   55.9    22    3.3   356      4.7   904.0    0.00       0    73.7
 274   22:40   57.1    21    2.9    29      5.6   904.1    0.00       0    73.7
 274   22:50   58.1    20    2.5    32      5.0   904.2    0.00       0    73.7
 274   23:00   57.9    20    2.7    54      5.7   904.3    0.00       0    73.7
 274   23:10   58.3    20    2.7    57      7.0   904.4    0.00       0    73.7
 274   23:20   58.0    20    3.3    17      6.1   904.5    0.00       0    73.7
 274   23:30   57.3    21    4.0    24      7.4   904.5    0.00       0    73.7
 274   23:40   55.2    23    4.5     0      7.0   904.5    0.00       0    73.7
 274   23:50   53.2    25    5.8   354      8.9   904.5    0.00       0    73.7
 275    0:00   53.8    24    4.4    12      7.9   904.5    0.00       0    73.6
 275    0:10   56.0    22    3.8    23      8.1   904.5    0.00       0    73.6
 275    0:20   57.4    22    4.4    33      8.3   904.5    0.00       0    73.6
 275    0:30   57.3    22    3.9    49      9.5   904.5    0.00       0    73.6
 275    0:40   56.9    22    5.3    74     11.9   904.5    0.00       0    73.5
 275    0:50   57.3    22    5.1    71     14.4   904.7    0.00       0    73.5
 275    1:00   57.4    21    2.6    31      5.6   904.9    0.00       0    73.5
 275    1:10   57.6    21    3.4    28      7.3   905.0    0.00       0    73.5
 275    1:20   57.7    21    4.2    18      8.6   905.0    0.00       0    73.4
 275    1:30   55.3    23    5.0     8      8.3   905.1    0.00       0    73.4
 275    1:40   54.0    24    3.6    28      8.9   905.1    0.00       0    73.4
 275    1:50   53.6    24    2.9    28      7.1   905.1    0.00       0    73.4
 275    2:00   52.7    26    3.4    29      7.1   905.1    0.00       0    73.3
 275    2:10   50.4    28    3.3    12      6.3   905.1    0.00       0    73.3
 275    2:20   50.1    29    2.0   346      5.4   905.1    0.00       0    73.3

Return to Beatty, Nevada graphs page.


Western Regional Climate Center,wrcc@dri.edu